DW0417 Weather Reports


time (UTC)temp
F
wind
direction
speed
knots
gust
knots
rain 1hr
in
rain 24hr
in
rain mn
in
humidity
%
barometer
mb
20260904014944 81 342 1.7 4.3 0.00 0.00 0.00 33 1012.7
20260904013936 82 339 1.7 5.2 0.00 0.00 0.00 32 1012.7
20260904012935 82 340 1.7 5.2 0.00 0.00 0.00 31 1012.7
20260904011935 83 46 1.7 4.3 0.00 0.00 0.00 30 1012.7
20260904010936 84 301 1.7 7.8 0.00 0.00 0.00 28 1012.5
20260904005935 85 334 0.9 4.3 0.00 0.00 0.00 27 1012.5
20260904004936 86 46 0.9 3.5 0.00 0.00 0.00 26 1012.5
20260904004421 88 51 0.0 0.9 0.00 0.00 0.00 25 1012.4
20260904002935 88 51 0.0 1.7 0.00 0.00 0.00 24 1012.4
20260904001936 89 51 0.0 2.6 0.00 0.00 0.00 24 1012.5
20260904000931 89 7 0.9 7.0 0.00 0.00 0.00 22 1012.4
20260903235930 91 46 0.9 7.0 0.00 0.00 0.00 21 1012.4
20260903234932 91 44 0.9 3.5 0.00 0.00 0.00 22 1012.3
20260903233929 91 44 1.7 7.0 0.00 0.00 0.00 22 1012.4
20260903232930 92 69 0.9 4.3 0.00 0.00 0.00 22 1012.3
20260903231930 92 80 0.0 3.5 0.00 0.00 0.00 21 1012.2
20260903230924 92 47 0.9 3.5 0.00 0.00 0.00 20 1012.3
20260903225925 90 47 2.6 7.8 0.00 0.00 0.00 21 1012.4
20260903224925 91 191 0.9 4.3 0.00 0.00 0.00 21 1012.4
20260903223924 91 47 1.7 6.1 0.00 0.00 0.00 21 1012.5
20260903222926 91 294 1.7 8.7 0.00 0.00 0.00 21 1012.5
20260903221925 90 184 1.7 8.7 0.00 0.00 0.00 21 1012.7
20260903221402 90 65 2.6 8.7 0.00 0.00 0.00 22 1012.9
20260903215926 90 69 1.7 6.1 0.00 0.00 0.00 22 1012.9
20260903214924 89 224 4.3 11.3 0.00 0.00 0.00 22 1013.0
20260903214413 89 57 7.0 13.0 0.00 0.00 0.00 23 1013.1
20260903212925 90 84 3.5 9.6 0.00 0.00 0.00 22 1013.1
20260903211925 90 57 4.3 10.4 0.00 0.00 0.00 22 1013.1
20260903211412 91 57 2.6 9.6 0.00 0.00 0.00 24 1013.2
20260903210414 90 255 1.7 6.1 0.00 0.00 0.00 23 1013.2
20260903204925 90 63 2.6 7.0 0.00 0.00 0.00 22 1013.5
20260903203924 89 53 2.6 12.2 0.00 0.00 0.00 23 1013.7
20260903202925 88 59 4.3 10.4 0.00 0.00 0.00 24 1013.8
20260903201922 89 14 1.7 7.8 0.00 0.00 0.00 24 1013.8
20260903200922 88 56 1.7 8.7 0.00 0.00 0.00 24 1013.9
20260903195922 87 11 6.1 12.2 0.00 0.00 0.00 24 1014.2
20260903195410 87 53 6.1 12.2 0.00 0.00 0.00 25 1014.2
20260903194359 87 44 4.3 10.4 0.00 0.00 0.00 24 1014.2
20260903192922 86 89 7.0 13.0 0.00 0.00 0.00 25 1014.3
20260903191922 86 58 5.2 11.3 0.00 0.00 0.00 27 1014.4
20260903190922 86 46 5.2 13.0 0.00 0.00 0.00 25 1014.5
20260903185921 86 59 6.1 13.9 0.00 0.00 0.00 26 1014.5
20260903184920 86 4 6.1 13.0 0.00 0.00 0.00 26 1014.6
20260903183920 86 79 5.2 14.8 0.00 0.00 0.00 25 1014.8
20260903182921 87 20 2.6 7.0 0.00 0.00 0.00 25 1014.9
20260903181920 86 46 3.5 8.7 0.00 0.00 0.00 26 1015.1
20260903181355 86 13 3.5 9.6 0.00 0.00 0.00 25 1015.1
20260903175921 85 68 5.2 12.2 0.00 0.00 0.00 26 1015.2
20260903174921 85 87 5.2 13.0 0.00 0.00 0.00 26 1015.2
20260903173921 85 46 6.1 14.8 0.00 0.00 0.00 28 1015.3
20260903172915 85 54 7.0 13.9 0.00 0.00 0.00 28 1015.3
20260903171916 84 69 7.0 19.1 0.00 0.00 0.00 28 1015.3
20260903170915 85 115 6.1 13.0 0.00 0.00 0.00 28 1015.3
20260903165914 84 41 7.0 17.4 0.00 0.00 0.00 27 1015.3
20260903164915 84 116 5.2 14.8 0.00 0.00 0.00 28 1015.3
20260903163916 84 109 7.8 13.9 0.00 0.00 0.00 28 1015.3
20260903162913 84 193 6.1 13.9 0.00 0.00 0.00 26 1015.3
20260903161914 83 221 5.2 10.4 0.00 0.00 0.00 27 1015.3
20260903161350 83 224 8.7 20.0 0.00 0.00 0.00 28 1015.5
20260903155909 83 231 6.1 16.5 0.00 0.00 0.00 27 1015.5
20260903154909 82 231 7.0 14.8 0.00 0.00 0.00 29 1015.5
20260903154352 81 226 9.6 15.6 0.00 0.00 0.00 29 1015.5
20260903152908 82 177 10.4 19.1 0.00 0.00 0.00 29 1015.5
20260903151909 81 192 9.6 17.4 0.00 0.00 0.00 30 1015.6
20260903150908 81 195 7.0 11.3 0.00 0.00 0.00 31 1015.6
20260903145908 80 181 7.8 13.0 0.00 0.00 0.00 33 1015.7
20260903144908 79 173 6.1 10.4 0.00 0.00 0.00 35 1015.8
20260903143910 76 178 5.2 8.7 0.00 0.00 0.00 38 1015.8
20260903142903 71 110 2.6 4.3 0.00 0.00 0.00 56 1015.8
20260903141903 70 105 0.9 3.5 0.00 0.00 0.00 55 1016.0
20260903140902 68 87 0.0 0.9 0.00 0.00 0.00 58 1016.0
20260903135903 65 87 0.9 3.5 0.00 0.00 0.00 62 1016.0
20260903134903 64 94 0.0 1.7 0.00 0.00 0.00 61 1016.2
20260903133903 64 94 0.9 4.3 0.00 0.00 0.00 61 1015.9
20260903132903 62 93 0.9 2.6 0.00 0.00 0.00 62 1015.7
20260903131901 59 81 0.9 1.7 0.00 0.00 0.00 69 1015.6
20260903130900 57 73 0.0 0.9 0.00 0.00 0.00 73 1015.6
20260903125855 55 73 0.0 0.9 0.00 0.00 0.00 77 1015.6
20260903124854 54 73 0.0 0.9 0.00 0.00 0.00 79 1015.5
20260903124822 54 73 0.0 0.0 0.00 0.00 0.00 80 1015.2
20260903122855 55 73 0.0 0.0 0.00 0.00 0.00 79 1015.2
20260903121854 54 73 0.0 1.7 0.00 0.00 0.00 79 1015.1
20260903120854 55 214 0.0 0.0 0.00 0.00 0.00 78 1015.1
20260903115855 56 214 0.0 1.7 0.00 0.00 0.00 77 1015.0
20260903114854 55 181 0.0 2.6 0.00 0.00 0.00 79 1015.0
20260903113853 55 170 0.9 1.7 0.00 0.00 0.00 78 1015.1
20260903112854 55 44 0.0 0.9 0.00 0.00 0.00 79 1015.0
20260903112248 56 44 0.0 1.7 0.00 0.00 0.00 77 1014.9
20260903112029 55 44 0.0 0.0 0.00 0.00 0.00 81 1014.9
20260903105855 56 44 0.0 1.7 0.00 0.00 0.00 79 1015.0
20260903104854 56 44 1.7 3.5 0.00 0.00 0.00 78 1015.0
20260903104343 56 46 0.0 2.6 0.00 0.00 0.00 79 1015.0
20260903102855 57 46 0.0 2.6 0.00 0.00 0.00 77 1014.8
20260903101849 58 87 0.0 1.7 0.00 0.00 0.00 75 1014.9
20260903101759 59 307 0.0 1.7 0.00 0.00 0.00 73 1015.0
20260903100330 60 262 0.9 4.3 0.00 0.00 0.00 71 1015.0
20260903094847 59 195 0.9 2.6 0.00 0.00 0.00 73 1015.1
20260903093849 58 194 0.9 2.6 0.00 0.00 0.00 79 1015.1
20260903092848 58 225 0.0 0.9 0.00 0.00 0.00 78 1015.1
20260903092316 59 226 0.0 0.0 0.00 0.00 0.00 74 1015.2
20260903091321 60 226 0.9 2.6 0.00 0.00 0.00 73 1015.2
20260903085839 59 192 0.0 2.6 0.00 0.00 0.00 75 1015.1
20260903084840 59 53 0.9 1.7 0.00 0.00 0.00 76 1015.1
20260903083841 60 53 0.0 1.7 0.00 0.00 0.00 75 1015.1
20260903082841 60 261 0.0 1.7 0.00 0.00 0.00 72 1015.0
20260903081839 61 288 0.0 0.0 0.00 0.00 0.00 71 1014.9
20260903080839 62 288 0.0 0.0 0.00 0.00 0.00 67 1015.0
20260903080324 62 288 0.0 0.9 0.00 0.00 0.00 71 1015.2
20260903074834 63 177 0.9 2.6 0.00 0.00 0.00 68 1015.1
20260903073834 62 260 0.0 0.9 0.00 0.00 0.00 73 1015.1
20260903073322 63 260 0.0 0.9 0.00 0.00 0.00 69 1015.0
20260903071833 63 260 0.0 0.0 0.00 0.00 0.00 71 1015.1
20260903070835 64 260 0.0 0.0 0.00 0.00 0.00 71 1015.2
20260903065834 65 260 0.0 0.9 0.00 0.00 0.00 68 1015.3
20260903064835 65 287 0.0 0.9 0.00 0.00 0.00 67 1015.5
20260903063833 66 177 0.0 0.0 0.00 0.00 0.00 65 1015.5
20260903062835 66 177 0.0 0.9 0.00 0.00 0.00 66 1015.5
20260903061829 66 190 0.9 1.7 0.00 0.00 0.00 67 1015.5
20260903060828 66 107 0.0 1.7 0.00 0.00 0.00 69 1015.5
20260903055828 66 91 1.7 3.5 0.00 0.00 0.00 66 1015.5
20260903054827 66 74 0.0 1.7 0.00 0.00 0.00 63 1015.2
20260903053827 67 259 0.9 2.6 0.00 0.00 0.00 62 1015.3
20260903053307 67 293 2.6 5.2 0.00 0.00 0.00 64 1015.2
20260903051828 65 260 1.7 4.3 0.00 0.00 0.00 67 1015.3
20260903050829 65 67 0.0 0.9 0.00 0.00 0.00 68 1015.5
20260903045828 67 67 0.9 3.5 0.00 0.00 0.00 66 1015.8
20260903044822 67 236 0.0 0.0 0.00 0.00 0.00 65 1015.5
20260903043822 66 230 0.0 1.7 0.00 0.00 0.00 66 1015.7
20260903042822 66 88 0.0 0.9 0.00 0.00 0.00 64 1015.8
20260903041822 66 88 0.0 0.0 0.00 0.00 0.00 63 1016.2
20260903041306 67 88 0.0 0.0 0.00 0.00 0.00 62 1016.0
20260903040256 67 88 3.5 7.8 0.00 0.00 0.00 63 1015.8
20260903035309 68 101 0.0 2.6 0.00 0.00 0.00 60 1015.6
20260903033821 69 104 0.0 0.9 0.00 0.00 0.00 59 1015.5
20260903032822 70 104 0.0 2.6 0.00 0.00 0.00 58 1015.5
20260903031816 71 104 0.9 3.5 0.00 0.00 0.00 55 1015.8
20260903031252 71 81 3.5 7.0 0.00 0.00 0.00 54 1015.7
20260903025815 73 225 0.9 3.5 0.00 0.00 0.00 50 1015.2
20260903024814 74 303 1.7 4.3 0.00 0.00 0.00 48 1015.2
20260903024730 73 53 1.7 4.3 0.00 0.00 0.00 49 1015.0
20260903022815 73 101 0.0 1.7 0.00 0.00 0.00 48 1015.3
20260903021816 74 80 0.0 1.7 0.00 0.00 0.00 47 1015.2
20260903020816 75 304 0.0 1.7 0.00 0.00 0.00 45 1014.8
20260903015816 76 308 0.9 4.3 0.00 0.00 0.00 44 1014.5